TITAN 3A TRANSTAGE R/B, 1001

Orbit data source: Space-Track

TITAN 3A TRANSTAGE R/B, 1001 is space debris in LEO originally from a launch on Thu, 11 Feb 1965 UTC via a TITAN IIIA launch vehicle from the Air Force Eastern Test Range (AFETR). Debris objects in space refer to the collection of defunct objects orbiting the Earth. Examples of debris include non-operational satellites, rocket bodies, and fragments generated from explosions, collisions, or faulty payload assembly.

Loading next visibility...
Identifier
1001, 1965-008A
Orbit
LEO
Country
Flag of USUS
Related business
Manufacturer
Martin Marietta
Mission
Spacecraft
Bus & Motor
TRUSS, Unknown motor
Mass
336 kg wet, 336 kg dry
Launch date (UTC)
1965-02-11 (61 years ago)
Launch vehicle
TITAN IIIA
Launch site
Air Force Eastern Test Range (AFETR)
Object type
Payload
Rocket body
Debris
Shape & HBR
Cyl + 2 Nozzle, 1.6 m
Radar Cross Section
8.643 m², Large (>1 m²)

Expand to show TLE details & history
Last TLE update: 16 hours ago

TLE from 16 hours ago
0 TITAN 3A TRANSTAGE R/B
1 01001U 65008A   25258.51528323 -.00000002  00000-0 -13144-2 0  9991
2 01001  32.1494  41.9961 0018177 346.1966  13.8034  9.90722340194230
Epoch: 2025-09-15T12:22Z
TLE epoch observation values (Epoch: 2025-09-15T12:22:00.471Z)
Latitude
-0°
Longitude
-138.2247°
Altitude
2,761.958 km
Speed
6.612 km/s
True Right ascension
02h 47m 59s
True Declination
0° 00' 00"
Sunlit
Object was in daylight at epoch
Visualization orbit readout
Latitude
Unknown
Longitude
Unknown
Altitude
Unknown
Speed
Unknown
Apparent Right ascension
Unknown
Apparent Declination
Unknown
Sunlit
N/A
Visualization observer readout
Local Sidereal Time
20:39:44
Azimuth
Unknown
Elevation
Unknown
Doppler factor
Unknown
Orbital elements
Apogee altitude
2,798.581 km
Perigee altitude
2,765.281 km
Semi-major axis
9,160.068 km
Eccentricity
0.00182
Inclination
32.1494°
RAAN
41.9961°
Arg. of periapsis
346.1966°
True anomaly
13.85321°
Mean anomaly
13.8034°
Eccentric anomaly
13.82829°
Mean motion
2.47568 °/min
Orbital period
145.41 mins
BSTAR
-0.0013144
Loading maneuver chart data...
Computing Atmospheric mass density...
Loading historical data...
Loading historical data...
Loading historical data...
Loading historical data...
Loading historical data...
Loading historical data...
Loading historical data...
Other satellites on launch #8 in the year 1965 (1965-02-11 UTC)

Documentation

Showing up to 5 results
|